Regional Weather Roundup
Issued by NWS

Home | Current Version | Previous Version | Graphics & Text | Print | Product List | Glossary On
Versions: 1 2 3 4 5 6 7 8 9 10 11 12 13 14 15 16 17 18 19 20 21 22 23 24 25 26 27 28 29 30 31 32 33 34 35 36 37 38 39 40 41 42 43 44 45 46 47 48 49 50
000
ASUS43 KLMK 211602
RWRKY
KENTUCKY REGIONAL WEATHER ROUNDUP
NATIONAL WEATHER SERVICE LOUISVILLE KY
1100 AM EST SAT JAN 21 2017

NOTE "FAIR" INDICATES FEW OR NO CLOUDS BELOW 12,000 FEET
WITH NO SIGNIFICANT WEATHER AND/OR OBSTRUCTIONS TO VISIBILITY.

KYZ001>023-026-027-061>063-070>075-211700-
WESTERN AND SOUTH CENTRAL KENTUCKY

CITY           SKY/WX    TMP DP  RH WIND       PRES   REMARKS
PADUCAH        MOSUNNY   63  52  67 S10       29.66R
HENDERSON      CLOUDY    61  52  72 S13       29.65S
OWENSBORO      CLOUDY    59  54  83 S10       29.67S
HOPKINSVILLE   CLOUDY    61  54  76 SW12      29.70R
BOWLING GREEN  CLOUDY    65  57  75 SW10      29.71S
GLASGOW        NOT AVBL
$$

KYZ024-025-028>034-038-045-046-053-211700-
NORTH CENTRAL KENTUCKY

CITY           SKY/WX    TMP DP  RH WIND       PRES   REMARKS
LOUISVILLE/SDF CLOUDY    59  53  80 SE8       29.68F
LOUISVILLE/LOU CLOUDY    60  53  77 SE7       29.69F
FORT KNOX      CLOUDY    59  55  84 S10       29.68S
$$

KYZ035>037-039>044-047>052-055>060-089>105-211700-
NORTHEAST KENTUCKY

CITY           SKY/WX    TMP DP  RH WIND       PRES   REMARKS
LEXINGTON      PTSUNNY   59  52  77 S12       29.74F
COVINGTON      CLOUDY    57  52  83 S10       29.71S
FRANKFORT      CLOUDY    59  51  75 S6        29.71F
$$

KYZ054-064>069-076>088-106>120-211700-
SOUTHEAST KENTUCKY

CITY           SKY/WX    TMP DP  RH WIND       PRES   REMARKS
JACKSON        CLOUDY    59  52  77 CALM      29.78F
LONDON         CLOUDY    57  52  83 CALM      29.77F
SOMERSET       PTSUNNY   55  52  88 S6        29.78F
MIDDLESBORO    CLOUDY    54  54 100 CALM      29.84R
MONTICELLO     CLOUDY    59  54  83 E9        29.79R
$$




USA.gov is the U.S. government's official web portal to all federal, state and local government web resources and services.